Hastings, NE

1:21 PM CDT on March 29, 2017 (GMT -0500)
Hastings Municipal

Weather History for KHSI - February, 2015

Change the Weather History Date:

Monday, February 23, 2015

  Actual Average Record
Temperature  
Mean Temperature 14 °F 32 °F  
Max Temperature 28 °F 42 °F 75 °F (1918)
Min Temperature 0 °F 22 °F -7 °F (1910)
Degree Days  
Heating Degree Days 51 33  
Month to date heating degree days 874 822  
Since 1 July heating degree days 4395 4471  
Cooling Degree Days 0 0  
Month to date cooling degree days 0 0  
Year to date cooling degree days 0 0  
Moisture  
Dew Point 0 °F    
Average Humidity 55    
Maximum Humidity 75    
Minimum Humidity 34    
Precipitation  
Precipitation 0.00 in 0.02 in 0.65 in (1914)
Month to date precipitation 0.33 0.38  
Year to date precipitation 1.10 0.79  
Snow  
Snow 0.00 in 0.20 in 9.00 in (1994)
Month to date snowfall 5.3 5.6  
Since 1 July snowfall 16.1 21.5  
Snow Depth 0.00 in    
Sea Level Pressure  
Sea Level Pressure 30.60 in    
Wind  
Wind Speed 7 mph (SW)    
Max Wind Speed 16 mph    
Max Gust Speed 22 mph    
Visibility 10 miles    
Events      
T = Trace of Precipitation, MM = Missing Value Source: NWS Daily Summary

Daily Weather History Graph

Daily Weather History Graph

Search for Another Location

Airport or City:

Trip Planner

Search our weather history database for the weather conditions in past years. The results will help you decide how hot, cold, wet, or windy it might be!

Date:

Astronomy

Feb. 23, 2015 Rise Set
Actual Time 7:16 AM CST 6:18 PM CST
Civil Twilight 6:49 AM CST 6:45 PM CST
Nautical Twilight 6:17 AM CST 7:17 PM CST
Astronomical Twilight 5:45 AM CST 7:49 PM CST
Moon 10:08 AM CST (2/23) No Moon Set
Length of Visible Light 11h 56m
Length of Day
11h 01m
Waxing Crescent, 29% of the Moon is Illuminated
Feb 23
Waxing Crescent
Feb 25
First Quarter
Mar 5
Full
Mar 13
Last Quarter
Mar 20
New

Hourly Weather History & Observations

Time (CST) Temp. Windchill Dew Point Humidity Pressure Visibility Wind Dir Wind Speed Gust Speed Precip Events Conditions
12:53 AM 6.1 °F -4.3 °F -5.1 °F 60% 30.84 in 10.0 mi NE 5.8 mph - N/A   Clear
1:53 AM 3.0 °F -8.0 °F -6.0 °F 66% 30.84 in 10.0 mi NE 5.8 mph - N/A   Clear
2:53 AM 1.9 °F - -6.0 °F 69% 30.84 in 10.0 mi Calm Calm - N/A   Clear
3:53 AM 3.0 °F - -7.1 °F 63% 30.83 in 10.0 mi Calm Calm - N/A   Clear
4:53 AM 1.9 °F - -7.1 °F 66% 30.80 in 10.0 mi Calm Calm - N/A   Clear
5:53 AM 1.0 °F -6.7 °F -6.0 °F 72% 30.80 in 10.0 mi SW 3.5 mph - N/A   Clear
6:53 AM 1.4 °F -6.2 °F -7.6 °F 66% 30.65 in 10.0 mi South 3.5 mph - N/A   Clear
7:53 AM 1.9 °F -9.2 °F -6.0 °F 69% 30.80 in 10.0 mi SSW 5.8 mph - N/A   Clear
8:53 AM 7.0 °F -4.5 °F -2.9 °F 64% 30.79 in 10.0 mi SW 6.9 mph - N/A   Clear
9:53 AM 10.9 °F -0.8 °F -2.0 °F 56% 30.76 in 10.0 mi SSW 8.1 mph - N/A   Clear
10:53 AM 16.0 °F 6.3 °F -2.0 °F 45% 30.72 in 10.0 mi SSW 6.9 mph - N/A   Clear
11:53 AM 19.9 °F 11.1 °F -0.9 °F 40% 30.68 in 10.0 mi SW 6.9 mph - N/A   Clear
12:53 PM 23.0 °F - 1.4 °F 39% 30.51 in 10.0 mi North - - N/A   Clear
1:53 PM 24.1 °F 13.1 °F 3.0 °F 40% 30.58 in 10.0 mi SW 11.5 mph 16.1 mph N/A   Clear
2:53 PM 27.0 °F 17.3 °F 3.0 °F 36% 30.52 in 10.0 mi SW 10.4 mph 20.7 mph N/A   Clear
3:53 PM 28.0 °F 18.6 °F 3.0 °F 34% 30.49 in 10.0 mi SW 10.4 mph - N/A   Clear
4:53 PM 27.0 °F 16.7 °F 3.9 °F 37% 30.45 in 10.0 mi WSW 11.5 mph 19.6 mph N/A   Clear
5:53 PM 25.0 °F 14.2 °F 5.0 °F 43% 30.42 in 10.0 mi SW 11.5 mph 19.6 mph N/A   Clear
6:53 PM 21.9 °F 11.7 °F 6.1 °F 51% 30.39 in 10.0 mi SW 9.2 mph - N/A   Clear
7:53 PM 19.9 °F 11.1 °F 7.0 °F 57% 30.38 in 10.0 mi WSW 6.9 mph - N/A   Clear
8:53 PM 18.0 °F 9.8 °F 8.1 °F 65% 30.35 in 10.0 mi SW 5.8 mph - N/A   Clear
9:53 PM 17.1 °F 6.6 °F 8.1 °F 68% 30.33 in 10.0 mi SW 8.1 mph 17.3 mph N/A   Clear
10:53 PM 18.0 °F 6.1 °F 10.0 °F 71% 30.28 in 10.0 mi SW 10.4 mph 19.6 mph N/A   Clear
11:53 PM 17.1 °F 5.0 °F 9.0 °F 71% 30.24 in 10.0 mi SW 10.4 mph 21.9 mph N/A   Clear